Theta_e
304 305 306 306 309 308 308 309 308 309 309 309 309 308 309 311 311 311 311 311 312 313 314 311 311 312 312 312 312 313 314 316 316 316 317 315 317 317 317 316 315 317 315 313 312 314 316
303 303 304 306 306 308 308 309 308 309 309 309 309 309 308 309 310 310 311 310 310 311 313 313 312 312 312 313 312 312 314 315 315 315 316 315 317 316 315 316 316 315 314 313 312 313 313
308 304 303 303 306 306 308 309 309 308 309 309 308 309 309 309 309 309 309 309 309 309 312 309 310 311 310 312 310 313 313 313 314 311 315 314 316 314 313 314 311 313 316 315 313 313 315
310 309 307 304 303 306 307 308 309 309 309 309 309 308 309 309 308 308 309 309 309 309 309 308 308 309 309 309 309 312 312 312 312 312 314 314 315 312 311 311 312 316 318 320 314 313 312
311 311 310 305 303 304 307 308 308 309 309 309 309 308 309 308 308 308 309 309 309 309 309 309 308 308 308 308 309 309 311 312 312 313 313 312 315 311 309 315 317 316 318 319 316 311 314
309 310 308 305 304 303 305 307 308 309 309 309 309 308 308 308 308 308 309 308 308 308 308 309 309 308 308 308 310 310 311 311 312 312 309 310 310 313 314 318 323 317 317 318 320 313 313
309 309 309 306 304 304 305 307 307 309 309 308 309 308 308 308 308 308 308 308 308 308 307 308 309 308 308 308 308 308 307 309 309 310 316 308 313 317 315 316 317 316 318 318 313 310 314
308 308 309 308 305 304 305 307 308 308 309 308 308 308 308 308 308 308 308 308 308 308 310 309 309 309 308 309 309 308 309 309 311 315 310 312 315 310 308 310 313 317 318 316 311 311 312
305 307 308 309 306 304 304 307 308 308 309 308 308 307 308 308 309 308 308 307 309 309 307 308 309 309 312 309 308 308 308 309 312 311 313 313 310 308 309 310 314 314 319 314 316 312 310
306 305 307 308 309 305 305 305 307 308 307 308 308 308 308 307 308 307 307 307 310 309 314 311 309 309 309 309 309 308 308 310 308 311 311 311 309 308 311 311 312 314 309 312 313 317 319
306 306 305 307 308 309 306 305 305 306 308 308 308 308 308 307 307 307 307 308 311 308 313 309 309 309 308 310 309 309 310 308 309 308 311 311 311 311 313 311 310 312 310 312 312 314 315
304 306 306 304 306 308 309 308 305 306 305 307 307 307 307 307 307 307 308 310 306 315 312 309 308 309 310 309 308 308 307 308 307 310 311 310 308 310 311 310 310 309 310 310 311 314 323
301 303 306 305 304 306 307 308 308 306 306 305 305 306 307 307 308 310 311 308 318 313 307 310 310 308 309 309 310 308 308 309 311 318 316 311 309 309 309 312 311 310 313 324 323 328 318
302 301 304 305 305 304 305 307 308 307 306 306 305 306 308 309 310 309 309 309 314 309 310 309 308 308 309 308 309 309 309 311 309 307 310 316 314 310 309 311 312 310 311 326 321 319 317
300 303 302 304 305 305 304 305 307 309 306 306 308 307 309 307 309 308 308 316 313 309 308 310 308 309 310 309 309 309 309 310 309 308 312 313 312 308 309 309 309 312 315 308 311 306 317
300 301 303 302 304 305 305 304 305 308 309 306 308 309 309 309 308 307 312 311 310 306 308 308 310 308 310 309 310 310 309 307 309 307 306 307 312 309 310 309 308 309 307 313 313 322 315
300 300 302 304 302 304 305 304 304 306 309 308 309 308 308 309 308 309 315 311 309 308 308 309 309 309 309 309 309 309 307 308 308 309 306 306 311 310 309 310 311 310 311 307 309 310 312
309 305 302 303 304 303 304 305 304 305 309 308 309 314 307 309 312 307 311 308 307 308 307 309 309 309 309 308 310 310 309 309 307 308 310 307 310 312 308 307 307 308 309 309 312 311 308
312 309 306 303 304 303 304 305 305 304 308 308 307 308 308 307 315 311 308 308 308 309 309 309 310 308 308 309 311 310 309 307 307 308 309 307 308 312 309 308 307 310 308 306 306 308 311
315 314 309 304 304 305 304 304 305 304 307 308 306 315 308 307 304 309 309 308 309 307 308 307 308 307 308 309 309 310 309 308 307 308 305 305 307 308 310 309 310 310 309 307 309 311 310
316 316 315 311 304 305 305 304 305 305 306 307 307 307 306 311 309 307 307 307 307 307 307 306 309 307 307 309 308 310 309 308 308 306 306 306 309 306 306 305 307 308 309 309 308 309 309
315 315 316 315 308 304 305 305 305 305 304 307 308 308 304 305 304 306 306 308 308 308 306 308 309 307 307 308 307 308 309 308 307 307 306 305 310 306 306 305 305 306 307 307 308 308 308
315 314 314 315 314 306 305 305 305 305 304 306 307 307 307 303 304 307 307 308 308 306 307 306 307 308 308 307 305 305 304 304 305 307 307 306 307 307 307 304 304 307 305 306 306 306 307
315 315 315 314 315 313 306 305 305 305 305 304 305 307 308 309 306 305 306 306 307 306 307 306 305 306 305 304 304 304 305 305 306 304 304 306 306 307 309 306 311 304 301 303 305 306 306
315 314 315 315 315 314 310 305 305 305 305 305 305 306 308 309 306 306 305 307 306 305 306 306 305 305 305 304 306 306 306 305 305 304 305 304 306 308 310 308 309 306 303 305 306 309 305
313 315 315 315 315 314 312 309 305 305 305 305 305 305 306 308 307 305 306 306 308 307 306 305 305 305 304 303 306 310 311 306 307 306 304 305 305 308 306 309 312 308 305 303 304 310 305
305 310 315 315 314 313 311 310 309 305 305 306 305 305 306 307 306 305 306 307 305 304 307 304 305 305 304 306 308 309 310 303 308 308 308 309 309 310 308 310 310 307 304 302 309 309 304
300 309 314 313 314 313 310 310 310 308 305 306 306 306 306 306 306 306 305 305 305 305 309 304 306 305 305 308 308 308 308 306 305 305 307 309 310 311 309 310 312 304 302 307 307 305 304
304 309 312 313 313 313 311 310 309 309 307 306 306 306 306 306 306 306 306 307 306 305 305 304 304 304 306 307 305 304 306 303 306 310 302 307 309 311 310 311 306 304 305 305 304 304 304
Wind_Speed
8 9 8 8 9 8 7 7 10 8 12 15 16 21 24 27 24 19 18 15 13 11 9 4 6 10 16 15 5 15 26 18 23 15 14 14 19 18 13 15 11 6 7 4 4 6 8
11 10 8 9 8 9 6 5 7 7 10 12 13 17 17 17 20 22 22 18 19 7 4 7 11 17 9 14 9 14 17 21 22 12 9 14 17 16 11 15 15 8 10 9 6 6 5
13 11 10 9 8 7 7 4 4 6 7 10 13 14 15 16 15 11 12 17 18 22 2 10 5 8 5 3 8 22 21 18 19 19 11 16 9 10 11 9 9 17 10 9 6 3 4
14 14 14 11 8 7 6 6 2 4 5 8 13 14 13 15 19 16 10 11 14 15 17 10 16 9 4 6 9 17 18 17 22 24 17 14 15 9 4 15 8 7 9 10 4 2 2
14 14 14 14 10 7 5 6 5 2 4 8 10 11 12 14 17 16 11 11 12 10 8 5 12 7 3 6 9 11 19 19 21 16 12 10 9 6 7 15 9 6 13 12 7 3 2
17 17 16 15 13 8 6 5 5 5 4 6 8 9 10 13 13 19 9 6 6 7 8 4 2 4 4 2 15 13 14 18 17 12 9 7 5 8 9 14 13 16 12 7 10 3 3
17 19 20 18 15 11 7 5 5 4 5 4 4 8 11 13 14 16 15 10 9 4 8 1 3 7 8 9 9 8 9 14 10 12 8 4 5 13 18 15 8 13 14 15 5 2 3
15 18 21 21 17 13 9 7 7 4 2 4 2 6 10 14 10 17 18 9 7 4 3 11 14 12 14 10 6 9 13 9 13 12 6 5 6 2 3 6 9 12 16 7 5 4 1
13 16 19 21 20 15 11 8 7 6 3 2 4 7 9 13 9 17 18 15 10 7 2 6 12 17 6 5 3 5 12 9 9 6 9 8 3 4 4 9 11 6 12 8 6 6 4
12 14 16 19 20 17 13 9 7 6 5 5 5 8 10 13 6 15 12 12 8 4 2 12 8 6 3 4 5 8 12 10 2 10 9 9 5 3 7 6 1 8 2 7 13 8 4
10 12 14 16 19 20 16 12 10 7 7 6 8 9 13 14 14 10 13 7 3 2 3 13 6 4 7 5 0 9 4 4 6 3 3 4 4 3 4 3 3 6 5 7 7 5 3
9 10 12 14 16 18 19 15 11 9 8 9 9 10 13 14 13 11 9 6 2 1 5 6 7 8 3 9 6 3 4 11 7 9 15 7 2 4 3 7 4 13 9 6 4 2 1
9 9 10 12 14 16 18 19 14 10 9 8 8 9 10 10 8 8 9 1 1 5 2 5 4 5 5 8 5 7 6 6 3 4 5 6 5 2 4 9 3 0 4 3 2 1 2
8 9 10 10 12 14 16 19 17 14 10 8 7 7 7 8 10 9 3 2 8 1 2 3 3 2 5 7 5 6 2 3 6 2 4 4 4 7 8 4 1 3 2 3 5 5 3
7 9 9 10 11 13 15 17 19 17 13 9 6 4 5 10 9 6 1 6 3 2 2 4 2 3 3 2 1 2 5 3 5 6 2 5 3 2 4 3 3 4 1 1 6 2 1
7 8 9 10 10 12 15 17 19 20 17 9 4 1 10 9 7 4 5 5 2 2 3 2 2 3 3 5 2 3 4 3 4 6 4 3 6 2 2 1 8 2 5 2 1 2 3
6 7 9 10 10 11 14 17 19 20 19 10 3 1 14 7 6 7 4 3 2 2 2 1 2 2 3 1 3 2 3 2 3 4 3 2 1 2 2 3 2 3 2 4 2 2 1
5 6 8 10 11 11 12 16 19 20 20 9 4 1 12 5 3 4 2 2 2 2 2 2 2 4 3 3 3 2 2 2 5 3 2 2 3 4 2 2 2 2 1 1 2 3 2
7 6 6 8 10 11 11 14 17 20 19 9 3 4 11 4 3 3 2 2 3 3 3 4 2 1 1 2 2 3 2 2 6 2 2 1 1 5 2 2 1 3 2 2 3 1 6
7 9 8 7 9 10 11 12 15 18 17 9 2 1 7 9 7 3 2 2 2 3 3 3 3 2 1 2 3 4 2 1 2 2 4 0 2 3 2 4 3 4 5 7 4 3 4
6 8 11 11 8 10 12 11 13 15 15 7 4 3 2 3 5 5 2 1 1 1 2 4 3 5 3 2 2 3 3 2 2 5 3 2 2 2 2 3 3 3 6 10 11 10 8
9 9 10 12 12 9 10 11 12 13 12 8 3 1 3 2 1 1 3 3 2 1 4 3 2 2 3 3 2 2 1 1 3 4 3 4 2 2 0 2 2 6 11 12 13 12 15
11 11 11 11 12 10 9 9 9 10 11 5 4 4 2 2 1 1 1 1 1 1 2 3 1 1 5 3 3 5 6 6 4 2 2 2 2 2 2 4 6 8 7 12 4 6 6
18 14 12 12 11 12 10 8 7 6 7 6 5 2 1 2 1 1 1 1 2 1 2 1 2 1 2 10 10 8 11 10 9 10 5 2 3 1 2 3 2 2 2 3 8 10 11
20 18 16 13 11 10 11 8 7 4 3 4 4 3 1 1 1 2 3 2 4 3 2 2 2 3 9 2 1 1 2 2 5 6 6 5 1 2 1 2 6 2 3 5 3 1 4
20 21 19 15 13 11 9 8 7 6 2 2 2 2 1 1 2 2 3 3 2 2 3 2 4 7 4 1 1 1 0 1 1 1 3 3 3 1 1 2 3 2 3 4 2 2 4
19 22 20 17 14 13 9 7 8 6 5 3 2 1 1 1 2 4 2 1 4 2 2 2 4 4 3 1 1 2 0 1 2 3 3 3 2 4 4 4 8 4 6 7 2 2 1
13 19 20 15 14 14 10 7 9 7 7 6 4 3 2 2 3 5 5 3 3 3 2 5 3 2 2 3 2 2 3 3 2 2 4 5 7 4 3 4 5 7 7 4 2 3 7
12 13 20 19 13 15 12 10 8 6 5 7 6 5 4 4 3 4 7 8 9 6 3 8 1 3 4 2 1 2 2 2 2 3 2 4 5 3 8 3 1 12 4 7 5 11 13
Wind_Direction
5 1 0 356 12 4 1 17 22 22 24 25 28 30 31 35 37 37 36 31 27 44 61 105 124 153 164 185 202 183 192 197 193 184 186 189 187 191 188 176 160 180 158 118 131 140 143
15 356 351 7 9 1 350 13 26 24 21 26 10 8 16 27 38 26 22 33 28 6 81 118 156 161 172 192 205 179 180 188 191 164 191 192 192 199 168 171 190 150 139 128 115 126 128
18 8 2 359 355 356 350 352 27 28 20 13 5 360 2 6 11 17 0 358 13 27 131 66 73 162 155 217 186 169 163 165 190 204 231 200 212 219 165 141 139 142 121 125 93 113 134
15 11 5 3 349 340 359 337 349 36 26 5 356 357 358 359 360 3 340 350 358 3 43 44 80 128 59 168 168 174 173 172 179 167 224 213 211 231 206 131 123 161 162 159 112 146 154
18 11 2 0 1 339 341 352 318 320 360 355 359 356 352 358 5 9 354 11 42 354 7 23 37 48 345 154 203 177 177 155 157 182 217 201 203 211 154 163 148 186 172 173 142 55 172
22 20 13 11 5 360 340 346 342 309 328 346 356 355 359 356 11 7 356 359 358 335 323 297 316 129 172 251 148 127 147 146 165 183 180 151 203 195 172 179 179 174 158 155 150 130 182
22 20 20 15 12 11 358 349 358 327 314 350 356 354 358 3 17 13 18 36 26 27 35 353 114 94 146 176 185 227 193 159 182 184 151 134 219 189 178 185 162 160 159 155 120 78 166
20 20 19 19 16 14 10 360 3 359 334 349 4 350 356 360 346 8 15 52 33 351 336 51 91 67 109 113 124 160 159 174 171 152 153 158 194 25 121 132 152 151 149 127 100 49 218
20 18 18 20 21 19 13 10 5 4 1 1 332 335 336 352 351 3 4 12 19 1 290 36 43 78 109 108 64 121 177 143 131 129 151 154 41 303 172 135 136 118 170 159 139 132 80
16 15 18 18 22 22 16 6 1 353 338 323 313 319 325 333 345 344 352 348 356 4 70 354 3 93 245 279 80 87 129 131 93 112 95 76 7 254 140 99 216 143 65 130 134 159 171
6 12 15 17 18 21 20 9 354 343 322 317 311 311 312 324 324 336 333 337 352 118 67 336 331 355 30 73 156 36 129 76 81 70 234 65 43 31 101 66 323 114 134 119 126 99 158
357 4 11 15 15 15 19 14 1 345 325 315 313 315 320 326 326 333 344 332 108 155 46 349 337 350 39 46 4 30 86 83 108 74 76 84 56 19 39 56 92 130 115 84 82 104 209
3 355 2 9 13 13 13 14 5 355 341 321 312 322 337 350 346 347 345 355 101 56 307 360 355 1 69 18 46 28 36 42 63 112 58 82 36 8 14 100 98 134 173 107 125 184 241
358 0 349 1 7 11 12 11 13 360 342 340 324 325 331 342 336 337 12 188 68 294 317 342 321 8 66 3 44 19 77 75 54 36 104 115 143 2 350 21 88 132 300 178 162 179 153
345 353 353 346 0 3 9 8 7 6 352 326 336 331 343 335 340 344 136 57 86 196 319 326 289 64 51 50 84 66 46 38 17 10 49 130 88 336 28 17 324 150 187 71 103 60 247
327 340 345 349 349 357 0 5 3 1 0 353 352 65 3 352 360 38 71 97 47 254 313 293 53 1 73 6 50 39 31 14 4 21 314 152 108 28 351 262 57 19 123 131 64 130 236
311 326 333 343 347 353 357 359 3 3 4 2 28 85 1 10 39 50 76 88 160 210 192 3 22 93 73 71 48 60 26 58 4 346 355 121 83 116 257 18 72 146 138 63 76 351 303
323 318 330 335 344 350 356 357 358 4 8 17 33 42 357 24 33 42 57 51 340 359 338 148 104 57 46 36 67 98 95 30 354 313 32 42 92 107 68 35 347 5 40 309 262 168 71
12 350 329 330 335 344 352 359 358 360 9 22 49 17 12 51 81 59 91 76 34 20 33 2 86 29 139 89 108 49 59 11 358 8 28 87 59 120 125 166 166 231 160 103 96 44 214
358 6 2 333 329 337 340 354 358 358 3 25 44 39 28 52 59 95 132 46 84 36 42 15 27 346 20 80 26 134 139 53 13 75 30 289 79 18 82 85 99 179 190 198 207 196 208
324 343 352 356 338 330 335 342 354 0 2 17 46 78 61 22 45 47 5 54 72 60 57 35 76 51 25 53 37 49 11 19 33 1 9 350 104 100 135 151 184 219 195 190 207 225 239
275 305 325 339 342 327 328 335 347 1 4 30 62 66 81 91 36 22 11 46 21 56 349 16 86 55 27 84 44 62 96 40 23 39 38 3 70 9 250 44 301 268 243 228 229 249 260
267 289 302 314 331 334 324 329 338 356 11 41 54 58 80 7 48 184 71 97 85 122 58 38 22 95 74 73 71 93 84 83 77 50 74 39 108 12 2 351 313 273 270 208 203 230 245
259 266 275 291 307 328 330 326 322 353 10 23 23 37 66 107 328 49 147 132 128 56 125 57 65 26 123 120 93 86 71 72 69 53 30 120 102 37 296 289 250 103 105 149 233 259 232
249 261 263 268 281 306 324 328 314 315 358 5 17 31 42 106 164 177 167 124 123 91 79 92 40 118 146 143 161 143 113 137 47 38 22 14 114 95 285 256 311 155 181 174 207 277 192
244 246 255 258 264 279 299 322 312 294 290 313 351 13 35 159 217 162 159 178 169 153 138 93 111 145 161 137 227 258 286 107 148 103 38 60 57 283 155 267 268 105 175 175 164 168 163
239 237 239 244 251 259 269 296 297 294 276 263 266 295 295 248 202 176 209 181 159 138 107 151 165 165 179 183 207 226 189 358 215 201 168 158 173 215 191 242 272 192 151 156 238 58 195
251 225 225 233 243 243 247 271 284 280 260 247 249 248 240 255 234 219 213 191 172 189 199 152 149 177 136 195 203 170 210 178 219 174 195 194 175 192 189 233 286 143 131 216 70 307 306
252 236 228 225 236 239 237 247 267 288 281 238 240 240 239 248 254 223 224 231 230 215 197 180 221 161 173 122 213 122 197 189 233 252 219 245 218 191 214 244 35 201 255 214 296 304 310